Location: Newark
(59.4564°N, 26.6917°E)
Time: 08:16:16
(UTC+00:00)

SR - Pass Details

Date: 22 November 2019
Orbit: 573 x 882 km, 66.7° (Epoch: 15 December)

Event Time Altitude Azimuth Distance (km) Brightness Sun altitude
Rises 21:37:23 0° 311° (NW) 3,489 ? -50.6°
Enters shadow 21:37:55 - 309° (NW) 3,316 ? -50.6°
Reaches altitude 10° 21:40:26 10° 297° (WNW) 2,552 - -50.6°
Maximum altitude 21:44:47 22° 250° (WSW) 1,846 - -50.7°
Drops below altitude 10° 21:49:04 10° 202° (SSW) 2,500 - -50.7°
Sets 21:52:02 0° 188° (S) 3,398 - -50.7°
